Location: *
(41.7492°S, 135.4150°W)
Time: 19:58:58
(UTC+00:00)

XW-2B - Visible Passes

Search period start: 26 June 2022 00:00
Search period end: 06 July 2022 00:00
Orbit: 498 x 515 km, 97.5° (Epoch: 26 June)

Date Brightness Start Highest point End Pass type
(mag) Time Alt. Az. Time Alt. Az. Time Alt. Az.
26 Jun ? 02:42:53 11° SSE 02:46:13 36° E 02:49:39 10° NNE visible
26 Jun ? 04:17:42 11° SSW 04:19:46 15° WSW 04:22:00 10° WNW visible
26 Jun ? 13:22:33 10° ENE 13:23:56 16° E 13:23:56 16° E visible
26 Jun ? 14:55:31 10° NNW 14:58:45 30° W 14:58:45 30° W visible
27 Jun ? 02:25:32 10° SE 02:28:32 22° E 02:31:29 10° NNE visible
27 Jun ? 03:59:53 13° SSW 04:02:19 24° WSW 04:05:19 10° WNW visible
27 Jun ? 14:37:32 10° N 14:40:57 49° WNW 14:40:57 49° WNW visible
28 Jun ? 02:08:45 10° ESE 02:10:47 14° E 02:12:48 10° NE visible
28 Jun ? 03:42:03 15° S 03:44:49 37° WSW 03:48:16 10° NW visible
28 Jun ? 14:19:48 10° NNE 14:23:09 69° N 14:23:09 69° N visible
29 Jun ? 03:24:12 15° S 03:27:15 64° WSW 03:30:55 10° NNW visible
29 Jun ? 14:02:18 10° NNE 14:05:20 47° ENE 14:05:20 47° ENE visible
30 Jun ? 03:06:21 13° SSE 03:09:39 75° ENE 03:13:20 10° N visible
30 Jun ? 13:45:01 10° NE 13:47:30 29° E 13:47:30 29° E visible
30 Jun ? 15:19:57 10° NW 15:22:19 16° W 15:22:19 16° W visible
01 Jul ? 02:48:28 10° SSE 02:51:58 43° E 02:55:31 10° N visible
01 Jul ? 04:23:36 10° SW 04:25:27 13° WSW 04:27:17 10° W visible
01 Jul ? 13:28:01 10° ENE 13:29:40 18° E 13:29:40 18° E visible
01 Jul ? 15:01:26 10° NNW 15:04:29 26° W 15:04:29 26° W visible
02 Jul ? 02:31:04 10° SE 02:34:14 26° E 02:37:24 10° NNE visible
02 Jul ? 04:05:23 11° SSW 04:07:58 21° WSW 04:10:46 10° WNW visible
02 Jul ? 13:11:26 10° E 13:11:50 11° E 13:11:50 11° E visible
02 Jul ? 14:43:18 10° N 14:46:39 42° WNW 14:46:39 42° WNW visible
03 Jul ? 02:14:03 10° SE 02:16:28 16° E 02:18:52 10° NE visible
03 Jul ? 03:47:29 13° S 03:50:26 32° WSW 03:53:45 10° NW visible
03 Jul ? 14:25:27 10° N 14:28:48 66° NNW 14:28:48 66° NNW visible
04 Jul ? 03:29:34 13° S 03:32:49 54° WSW 03:36:27 10° NNW visible
04 Jul ? 14:07:49 10° NNE 14:10:57 55° ENE 14:10:57 55° ENE visible
05 Jul ? 03:11:38 11° SSE 03:15:11 88° ENE 03:18:53 10° NNW visible
05 Jul ? 13:50:25 10° NE 13:53:06 33° ENE 13:53:06 33° ENE visible
05 Jul ? 15:25:54 10° NW 15:27:54 14° W 15:27:54 14° W visible
